When you browse on this site, cookies collect data to enhance your experience and personalize the content and advertising you see.
Visit our Privacy Policy to learn more. By continuing to use the site, you agree to this use of cookies and data.
  • Em Portugal
  • Lista de países
  • Para 7 dias
  • Temperatura da água
  • Mapas de satélite
  • Mapa do tempo
  • Widgets de tempo
  • user-avatar
    Iniciar Sessão

    Previsão horária em Vratsa

    Hoje, 17 Novembro, Sábado

    Tempo Temperatura Precipitação Vento Pressão Humidade
    00:00 -2°C° 0 mm 2 m/s 716 mmHg 74%
    01:00 -2°C° 0 mm 2 m/s 716 mmHg 75%
    02:00 -2°C° 0 mm 3 m/s 716 mmHg 73%
    03:00 -4°C° 0 mm 3 m/s 716 mmHg 74%
    04:00 -4°C° 0 mm 3 m/s 716 mmHg 75%
    05:00 -4°C° 0 mm 3 m/s 716 mmHg 76%
    06:00 -4°C° 0 mm 3 m/s 716 mmHg 76%
    07:00 -4°C° 0 mm 3 m/s 716 mmHg 76%
    08:00 -4°C° 0 mm 3 m/s 716 mmHg 75%
    09:00 -2°C° 0 mm 3 m/s 716 mmHg 71%
    10:00 -2°C° 0 mm 3 m/s 716 mmHg 67%
    11:00 -1°C° 0 mm 3 m/s 716 mmHg 62%
    12:00 0°C° 0 mm 3 m/s 716 mmHg 62%
    13:00 0°C° 0 mm 3 m/s 716 mmHg 61%
    14:00 0°C° 0 mm 3 m/s 716 mmHg 64%
    15:00 -1°C° 0 mm 3 m/s 716 mmHg 67%
    16:00 -1°C° 0 mm 3 m/s 716 mmHg 70%
    17:00 -2°C° 0 mm 3 m/s 716 mmHg 74%
    18:00 -2°C° 0 mm 3 m/s 716 mmHg 77%
    19:00 -2°C° 0 mm 3 m/s 716 mmHg 79%
    20:00 -4°C° 0 mm 3 m/s 716 mmHg 82%
    21:00 -3°C° 0 mm 2 m/s 716 mmHg 83%
    22:00 -3°C° 0 mm 2 m/s 716 mmHg 84%
    23:00 -3°C° 0 mm 2 m/s 716 mmHg 84%

    Amanhã, 18 Novembro, Domingo

    Tempo Temperatura Precipitação Vento Pressão Humidade
    00:00 -3°C° 0 mm 2 m/s 716 mmHg 84%
    01:00 -3°C° 0 mm 2 m/s 716 mmHg 84%
    02:00 -3°C° 0 mm 2 m/s 716 mmHg 84%
    03:00 -3°C° 0 mm 2 m/s 715 mmHg 84%
    04:00 -3°C° 0 mm 2 m/s 715 mmHg 84%
    05:00 -3°C° 0 mm 2 m/s 715 mmHg 83%
    06:00 -3°C° 0 mm 2 m/s 714 mmHg 83%
    07:00 -3°C° 0 mm 2 m/s 714 mmHg 83%
    08:00 -3°C° 0 mm 2 m/s 714 mmHg 83%
    09:00 -2°C° 0 mm 2 m/s 713 mmHg 80%
    10:00 -1°C° 0 mm 2 m/s 713 mmHg 76%
    11:00 -1°C° 0 mm 2 m/s 713 mmHg 73%
    12:00 +1°C° 0 mm 2 m/s 712 mmHg 72%
    13:00 +1°C° 0 mm 2 m/s 712 mmHg 71%
    14:00 +1°C° 0 mm 3 m/s 711 mmHg 70%
    15:00 +1°C° 0.2 mm 2 m/s 710 mmHg 74%
    16:00 -1°C° 0.2 mm 2 m/s 710 mmHg 78%
    17:00 -1°C° 0.2 mm 2 m/s 709 mmHg 82%
    18:00 -2°C° 1 mm 2 m/s 708 mmHg 86%
    19:00 -2°C° 1 mm 2 m/s 708 mmHg 89%
    20:00 0°C° 1 mm 1 m/s 707 mmHg 93%
    21:00 0°C° 1.1 mm 1 m/s 707 mmHg 94%
    22:00 0°C° 1.1 mm 1 m/s 707 mmHg 95%
    23:00 0°C° 1.1 mm 1 m/s 706 mmHg 96%

    Depois de amanhã, 19 Novembro, Segunda-feira

    Tempo Temperatura Precipitação Vento Pressão Humidade
    00:00 0°C° 1.3 mm 1 m/s 706 mmHg 96%
    01:00 0°C° 1.3 mm 1 m/s 705 mmHg 97%
    02:00 0°C° 1.3 mm 1 m/s 705 mmHg 97%
    03:00 0°C° 0.5 mm 1 m/s 705 mmHg 97%
    04:00 -1°C° 0.5 mm 1 m/s 705 mmHg 97%
    05:00 -1°C° 0.5 mm 1 m/s 704 mmHg 97%
    06:00 0°C° 0.4 mm 1 m/s 704 mmHg 97%
    07:00 0°C° 0.4 mm 1 m/s 705 mmHg 97%
    08:00 0°C° 0.4 mm 1 m/s 705 mmHg 97%
    09:00 0°C° 0.3 mm 1 m/s 705 mmHg 96%
    10:00 +1°C° 0.3 mm 1 m/s 706 mmHg 96%
    11:00 +1°C° 0.3 mm 1 m/s 706 mmHg 95%
    12:00 +2°C° 0 mm 1 m/s 706 mmHg 95%
    13:00 +2°C° 0 mm 1 m/s 706 mmHg 95%
    14:00 +2°C° 0 mm 1 m/s 707 mmHg 95%
    15:00 +2°C° 0 mm 1 m/s 707 mmHg 95%
    16:00 +1°C° 0 mm 1 m/s 707 mmHg 96%
    17:00 +1°C° 0 mm 1 m/s 707 mmHg 97%
    18:00 +1°C° 0 mm 1 m/s 708 mmHg 97%
    19:00 0°C° 0 mm 1 m/s 708 mmHg 97%
    20:00 0°C° 0 mm 1 m/s 709 mmHg 97%
    21:00 0°C° 0 mm 1 m/s 709 mmHg 96%
    22:00 0°C° 0 mm 1 m/s 709 mmHg 95%
    23:00 0°C° 0 mm 1 m/s 709 mmHg 95%

    20 Novembro, Terça-feira

    Tempo Temperatura Precipitação Vento Pressão Humidade
    00:00 0°C° 0 mm 1 m/s 710 mmHg 94%
    01:00 0°C° 0 mm 1 m/s 710 mmHg 94%
    02:00 0°C° 0 mm 1 m/s 710 mmHg 93%
    03:00 0°C° 0.1 mm 1 m/s 710 mmHg 93%
    04:00 -2°C° 0.1 mm 2 m/s 710 mmHg 93%
    05:00 -1°C° 0.1 mm 2 m/s 709 mmHg 93%
    06:00 -1°C° 0.7 mm 2 m/s 710 mmHg 94%
    07:00 -1°C° 0.7 mm 2 m/s 710 mmHg 95%
    08:00 +1°C° 0.7 mm 2 m/s 710 mmHg 96%
    09:00 +1°C° 0.5 mm 2 m/s 710 mmHg 95%
    10:00 +2°C° 0.5 mm 2 m/s 710 mmHg 95%
    11:00 +1°C° 0.5 mm 3 m/s 710 mmHg 94%
    12:00 +1°C° 0.4 mm 3 m/s 709 mmHg 94%
    13:00 +3°C° 0.4 mm 2 m/s 709 mmHg 94%
    14:00 +3°C° 0.4 mm 2 m/s 708 mmHg 94%
    15:00 +3°C° 0.5 mm 2 m/s 708 mmHg 95%
    16:00 +2°C° 0.5 mm 2 m/s 708 mmHg 96%
    17:00 +2°C° 0.5 mm 2 m/s 708 mmHg 97%
    18:00 +2°C° 0.2 mm 2 m/s 707 mmHg 97%
    19:00 +2°C° 0.2 mm 2 m/s 707 mmHg 97%
    20:00 +2°C° 0.2 mm 2 m/s 707 mmHg 97%
    21:00 +2°C° 0.3 mm 2 m/s 707 mmHg 97%
    22:00 +2°C° 0.3 mm 2 m/s 707 mmHg 97%
    23:00 +2°C° 0.3 mm 2 m/s 707 mmHg 97%

    21 Novembro, Quarta-feira

    Tempo Temperatura Precipitação Vento Pressão Humidade
    00:00 +2°C° 0.6 mm 2 m/s 706 mmHg 97%
    01:00 +2°C° 0.6 mm 2 m/s 706 mmHg 97%
    02:00 +2°C° 0.6 mm 2 m/s 705 mmHg 98%
    03:00 +3°C° 0.4 mm 1 m/s 705 mmHg 98%
    04:00 +3°C° 0.4 mm 1 m/s 704 mmHg 98%
    05:00 +4°C° 0.4 mm 1 m/s 704 mmHg 98%
    06:00 +4°C° 1.7 mm 1 m/s 703 mmHg 98%
    07:00 +4°C° 1.7 mm 1 m/s 703 mmHg 98%
    08:00 +4°C° 1.7 mm 1 m/s 703 mmHg 98%
    09:00 +4°C° 1.5 mm 1 m/s 703 mmHg 97%
    10:00 +4°C° 1.5 mm 1 m/s 703 mmHg 96%
    11:00 +3°C° 1.5 mm 2 m/s 703 mmHg 96%
    12:00 +3°C° 0.4 mm 2 m/s 703 mmHg 95%
    13:00 +3°C° 0.4 mm 2 m/s 703 mmHg 94%
    14:00 +3°C° 0.4 mm 2 m/s 704 mmHg 94%
    15:00 +3°C° 0.3 mm 2 m/s 704 mmHg 94%
    16:00 +3°C° 0.3 mm 2 m/s 704 mmHg 94%
    17:00 +3°C° 0.3 mm 2 m/s 705 mmHg 94%
    18:00 +3°C° 0.3 mm 2 m/s 706 mmHg 94%
    19:00 +4°C° 0.3 mm 2 m/s 706 mmHg 94%
    20:00 +4°C° 0.3 mm 2 m/s 707 mmHg 94%
    21:00 +5°C° 0.3 mm 1 m/s 707 mmHg 94%
    22:00 +5°C° 0.3 mm 1 m/s 707 mmHg 94%
    23:00 +5°C° 0.3 mm 1 m/s 708 mmHg 94%

    22 Novembro, Quinta-feira

    Tempo Temperatura Precipitação Vento Pressão Humidade
    00:00 +5°C° 0.1 mm 1 m/s 708 mmHg 95%
    01:00 +5°C° 0.1 mm 1 m/s 708 mmHg 95%
    02:00 +5°C° 0.1 mm 1 m/s 709 mmHg 96%
    03:00 +5°C° 0 mm 1 m/s 709 mmHg 96%
    04:00 +5°C° 0 mm 1 m/s 709 mmHg 96%
    05:00 +5°C° 0 mm 1 m/s 709 mmHg 96%
    06:00 +4°C° 0 mm 1 m/s 710 mmHg 95%
    07:00 +4°C° 0 mm 1 m/s 710 mmHg 95%
    08:00 +4°C° 0 mm 1 m/s 710 mmHg 94%
    09:00 +5°C° 0 mm 1 m/s 711 mmHg 90%
    10:00 +6°C° 0 mm 1 m/s 711 mmHg 87%
    11:00 +7°C° 0 mm 1 m/s 712 mmHg 83%
    12:00 +8°C° 0 mm 1 m/s 712 mmHg 81%
    13:00 +8°C° 0 mm 1 m/s 712 mmHg 80%
    14:00 +7°C° 0 mm 2 m/s 712 mmHg 78%
    15:00 +7°C° 0 mm 2 m/s 712 mmHg 82%
    16:00 +6°C° 0 mm 2 m/s 712 mmHg 85%
    17:00 +5°C° 0 mm 2 m/s 712 mmHg 88%
    18:00 +6°C° 0 mm 1 m/s 712 mmHg 89%
    19:00 +6°C° 0 mm 1 m/s 713 mmHg 90%
    20:00 +5°C° 0 mm 1 m/s 713 mmHg 91%
    21:00 +5°C° 0 mm 1 m/s 713 mmHg 91%
    22:00 +5°C° 0 mm 1 m/s 714 mmHg 91%
    23:00 +4°C° 0 mm 1 m/s 714 mmHg 92%
    Mostrar mais